Location: Casa Rossa
(45.2389°N, 12.2056°E)
Time: 23:20:08
(UTC+00:00)

COSMOS 2406 - Pass Details

Date: 14 July 2020
Orbit: 844 x 862 km, 71.0° (Epoch: 14 August)

Event Time Altitude Azimuth Distance (km) Brightness Sun altitude
Exits shadow 00:49:36 37° 191° (S) 1,315 3.7 -19.9°
Maximum altitude 00:51:58 76° 113° (ESE) 891 3.2 -19.7°
Drops below altitude 10° 00:57:44 10° 29° (NNE) 2,509 6.9 -19.3°
Sets 01:00:12 0° 28° (NNE) 3,448 8.1 -19.1°
